Weather History for CYUL - September, 2013

Change the Weather History Date:

Wednesday, September 4, 2013

  Actual Average Record
Temperature  
Mean Temperature 62 °F -  
Max Temperature 66 °F 72 °F 91 °F (1999)
Min Temperature 55 °F 56 °F 44 °F (1997)
Degree Days  
Heating Degree Days 4    
Growing Degree Days 12 (Base 50)    
Moisture  
Dew Point 55 °F    
Average Humidity 78    
Maximum Humidity 88    
Minimum Humidity 61    
Precipitation  
Precipitation 0.01 in - - ()
Sea Level Pressure  
Sea Level Pressure 29.85 in    
Wind  
Wind Speed 11 mph ()    
Max Wind Speed 18 mph    
Max Gust Speed 25 mph    
Visibility 14.8 miles    
Events Rain    
Averages and records for this station are not official NWS values.
T = Trace of Precipitation, MM = Missing Value Source: Averaged Metar Reports

Daily Weather History Graph

Daily Weather History Graph

Search for Another Location

Airport or City:

Trip Planner

Search our weather history database for the weather conditions in past years. The results will help you decide how hot, cold, wet, or windy it might be!

Date:

Astronomy

Sep. 04, 2013 Rise Set
Actual Time 6:20 AM EDT 7:26 PM EDT
Civil Twilight 5:49 AM EDT 7:56 PM EDT
Nautical Twilight 5:13 AM EDT 8:33 PM EDT
Astronomical Twilight 4:34 AM EDT 9:11 PM EDT
Moon 5:29 AM EDT (9/4) 6:43 PM EDT (9/4)
Length of Visible Light 14h 06m
Length of Day
13h 06m
Waning Crescent, 1% of the Moon is Illuminated
Sep 4
Waning Crescent
Sep 5
New
Sep 12
First Quarter
Sep 19
Full
Sep 26
Last Quarter

Hourly Weather History & Observations

Time (EDT) Temp. Dew Point Humidity Pressure Visibility Wind Dir Wind Speed Gust Speed Precip Events Conditions
12:00 AM 62.6 °F 57.2 °F 82% 29.77 in 15.0 mi WSW 12.7 mph 18.4 mph N/A   Partly Cloudy
1:00 AM 60.8 °F 57.2 °F 88% 29.80 in 15.0 mi WSW 9.2 mph - N/A   Partly Cloudy
2:00 AM 61 °F 56 °F 80% 29.80 in 15 mi WSW 13.8 mph - -   Scattered Clouds
2:00 AM 60.8 °F 57.2 °F 88% 29.80 in 15.0 mi WSW 13.8 mph - N/A   Partly Cloudy
3:00 AM 60.8 °F 55.4 °F 82% 29.79 in 15.0 mi WSW 13.8 mph - N/A   Partly Cloudy
4:00 AM 59.0 °F 55.4 °F 88% 29.80 in 15.0 mi WSW 12.7 mph 20.7 mph N/A   Partly Cloudy
5:00 AM 59.0 °F 55.4 °F 88% 29.80 in 15.0 mi SW 11.5 mph - N/A   Partly Cloudy
6:00 AM 59.0 °F 53.6 °F 82% 29.80 in 15.0 mi SW 12.7 mph - N/A   Partly Cloudy
7:00 AM 59.0 °F 53.6 °F 82% 29.81 in 15.0 mi WSW 5.8 mph - N/A   Partly Cloudy
8:00 AM 62 °F 57 °F 78% 29.80 in 15 mi SW 15.0 mph - -   Scattered Clouds
8:00 AM 62.6 °F 57.2 °F 82% 29.80 in 15.0 mi SW 15.0 mph - N/A   Partly Cloudy
9:00 AM 62.6 °F 55.4 °F 77% 29.82 in 15.0 mi WSW 18.4 mph 25.3 mph N/A   Mostly Cloudy
10:00 AM 62.6 °F 55.4 °F 77% 29.85 in 15.0 mi WSW 15.0 mph 21.9 mph N/A   Overcast
11:00 AM 62.6 °F 55.4 °F 77% 29.86 in 15.0 mi WSW 13.8 mph 20.7 mph N/A   Overcast
11:33 AM 62.6 °F 55.4 °F 77% 29.87 in 10.0 mi WSW 13.8 mph - N/A Rain Light Rain Showers
11:55 AM 62.6 °F 57.2 °F 82% 29.87 in 15.0 mi WSW 12.7 mph - N/A   Overcast
12:00 PM 62.6 °F 57.2 °F 82% 29.87 in 14.0 mi WSW 13.8 mph - N/A   Overcast
1:00 PM 62.6 °F 57.2 °F 82% 29.87 in 15.0 mi SW 8.1 mph - N/A   Overcast
1:09 PM 62.6 °F 57.2 °F 82% 29.86 in 15.0 mi SSW 9.2 mph - N/A Rain Light Rain Showers
1:47 PM 64.4 °F 57.2 °F 77% 29.88 in 15.0 mi WSW 11.5 mph 17.3 mph N/A   Overcast
2:00 PM 64 °F 57 °F 71% 29.88 in 15 mi WSW 11.5 mph - - Rain Light Rain Showers
2:00 PM 64.4 °F 57.2 °F 77% 29.88 in 15.0 mi WSW 11.5 mph - N/A   Overcast
3:00 PM 64.4 °F 57.2 °F 77% 29.87 in 15.0 mi West 10.4 mph - N/A   Overcast
3:04 PM 64.4 °F 57.2 °F 77% 29.88 in 15.0 mi West 11.5 mph - N/A Rain Light Rain Showers
3:21 PM 64.4 °F 55.4 °F 73% 29.88 in 15.0 mi West 11.5 mph - N/A   Overcast
4:00 PM 64.4 °F 57.2 °F 77% 29.88 in 15.0 mi West 11.5 mph - N/A   Mostly Cloudy
5:00 PM 64.4 °F 55.4 °F 73% 29.88 in 15.0 mi West 12.7 mph 18.4 mph N/A   Mostly Cloudy
6:00 PM 64.4 °F 53.6 °F 68% 29.87 in 15.0 mi West 13.8 mph - N/A   Scattered Clouds
7:00 PM 62.6 °F 53.6 °F 72% 29.88 in 15.0 mi West 10.4 mph - N/A   Partly Cloudy
8:00 PM 61 °F 51 °F 61% 29.90 in 15 mi West 5.8 mph - -   Partly Cloudy
8:00 PM 60.8 °F 51.8 °F 72% 29.90 in 15.0 mi West 4.6 mph - N/A   Partly Cloudy
9:00 PM 59.0 °F 50.0 °F 72% 29.92 in 15.0 mi NW 5.8 mph - N/A   Partly Cloudy
10:00 PM 57.2 °F 50.0 °F 77% 29.93 in 15.0 mi NW 4.6 mph - N/A   Partly Cloudy
11:00 PM 55.4 °F 50.0 °F 82% 29.94 in 15.0 mi NW 5.8 mph - N/A   Partly Cloudy